GFSCGP_500_rhum_123.txt.gz
RH
18 17 15 14 14 13 12 11 10 8 9 7 7 5 8 35 100 97 94 89 97 90 79 84 72 60 62 59 53 43 35 32 26 36 33 24 20 14 12 13 7 10 23 36
19 19 17 15 13 12 11 9 9 7 6 5 5 6 6 14 73 90 77 76 96 95 91 73 76 80 74 56 45 36 30 26 30 36 40 28 18 16 13 12 10 13 12 32
20 17 15 12 10 8 7 4 4 4 6 4 5 4 4 5 22 94 89 67 82 70 85 78 89 88 70 52 48 44 34 37 45 42 40 31 22 20 16 17 17 11 11 24
15 12 10 7 6 3 2 2 2 3 2 3 8 12 4 6 10 34 69 78 71 68 79 87 81 76 66 57 59 55 48 45 42 38 35 32 29 20 17 16 15 11 12 18
12 10 6 4 2 2 5 14 23 23 34 19 8 37 4 5 7 19 32 62 69 94 99 93 90 75 69 63 56 56 52 46 37 32 34 36 32 22 18 17 16 13 11 18
10 6 3 3 5 43 54 56 56 46 38 89 14 29 3 4 6 17 55 71 78 96 98 75 63 68 62 58 56 49 50 42 37 33 32 33 32 26 17 19 16 15 13 19
8 3 3 19 59 54 71 68 75 76 82 59 53 43 4 11 9 18 84 97 99 96 95 90 62 56 56 48 49 51 49 47 40 37 34 29 24 23 19 14 15 16 17 24
3 4 5 38 76 57 53 90 78 100 98 78 96 58 4 11 21 40 91 79 72 81 82 76 77 61 51 48 48 47 45 44 39 38 37 32 26 21 20 13 14 22 26 31
2 6 36 56 58 98 67 86 100 100 85 85 100 75 24 31 31 57 72 88 98 92 79 70 52 53 48 46 42 42 42 40 37 38 36 32 30 23 17 14 15 45 48 28
3 2 30 43 43 99 100 100 100 97 98 67 86 62 43 51 67 70 92 64 64 93 81 56 73 66 71 43 37 39 40 38 35 35 32 28 24 18 14 14 35 52 47 28
4 7 23 45 62 72 99 99 99 100 99 70 76 52 97 98 67 75 69 59 42 50 79 87 94 47 27 30 30 30 30 30 30 32 32 28 20 15 17 32 42 49 36 27
5 14 20 27 51 88 92 90 100 100 98 94 74 77 100 100 78 93 96 52 61 92 91 98 96 37 22 21 22 24 26 28 30 28 29 30 23 20 25 27 31 39 25 22
4 27 27 26 45 66 79 98 98 99 91 84 57 89 100 100 100 99 89 57 74 74 75 98 100 42 36 19 17 21 24 27 29 28 27 27 27 24 23 28 28 32 25 23
5 36 49 34 16 15 26 80 100 100 82 96 51 97 98 97 100 100 100 100 96 94 100 99 100 65 39 21 19 22 23 24 25 26 25 24 23 22 24 21 22 28 33 26
7 34 42 63 30 19 26 65 98 99 94 77 76 100 99 88 81 100 100 98 97 88 90 91 96 50 27 27 25 25 24 22 20 20 21 20 20 20 18 19 19 25 32 45
11 34 38 60 53 36 57 100 100 100 89 61 56 99 87 74 97 89 100 99 96 100 100 98 60 31 26 23 19 17 16 16 15 14 14 15 15 15 18 19 18 24 33 44
10 30 35 47 73 82 100 95 100 100 98 82 73 32 42 57 83 99 100 100 100 100 100 100 81 58 36 16 14 15 14 14 14 13 12 12 11 13 15 27 24 36 61 55
18 31 43 40 82 100 100 100 100 100 100 100 78 94 74 51 63 100 96 100 100 100 99 99 100 87 52 32 23 15 13 13 13 13 11 10 12 13 17 29 31 34 38 44
28 31 44 77 89 99 100 100 100 100 100 100 100 82 89 78 97 100 100 100 98 100 100 100 100 91 90 52 28 22 16 16 14 12 11 10 9 14 23 26 37 47 48 51
100 100 60 87 93 100 100 96 100 100 100 100 100 100 95 87 93 93 99 100 100 99 98 98 96 68 82 60 34 24 20 16 12 12 13 10 9 11 16 35 36 31 33 62
72 59 49 66 100 100 100 81 100 100 99 100 100 100 98 94 80 72 81 85 67 59 61 73 77 59 40 44 33 26 26 24 22 17 13 12 11 12 19 75 95 93 83 89
89 94 57 72 99 98 83 67 95 100 88 100 100 100 100 99 78 78 100 100 94 81 68 40 45 56 53 49 39 28 24 25 26 29 26 17 14 15 15 24 41 51 79 83
100 99 91 88 91 74 71 91 60 92 96 100 100 100 100 100 100 100 100 100 100 100 98 94 82 72 64 54 43 33 33 27 24 24 28 34 31 26 22 16 15 21 30 84
83 96 95 92 90 72 81 47 21 20 82 100 100 100 100 100 100 100 100 100 96 93 100 99 98 83 77 89 79 74 78 74 55 52 47 39 39 41 42 36 30 29 68 89
84 97 94 80 77 76 76 69 27 18 30 48 90 100 100 100 100 100 100 100 96 96 98 94 84 86 94 98 79 66 67 69 68 65 56 54 53 44 45 48 50 77 91 100
84 84 95 87 62 60 54 32 21 16 14 22 20 99 100 100 100 100 100 100 100 100 100 99 95 100 100 100 81 81 80 76 67 60 37 41 35 71 77 94 93 94 100 100

GFSCGP_500_rhum_126.txt.gz
RH
24 22 19 18 19 18 16 15 13 11 11 12 11 10 8 8 8 8 8 10 28 46 64 100 98 96 100 86 58 48 44 41 43 49 43 37 33 29 25 23 17 12 14 9
23 22 20 20 21 20 17 14 12 10 9 8 8 9 9 6 5 6 6 6 18 82 62 94 84 92 98 96 88 59 47 49 50 54 44 42 40 32 26 23 15 16 18 14
26 24 22 20 15 12 10 8 6 5 4 3 5 2 3 4 8 7 5 5 8 97 93 93 94 87 98 90 88 68 69 60 55 48 41 41 42 40 31 28 18 21 23 16
24 24 20 16 12 8 7 4 3 4 6 8 28 9 2 2 3 6 6 5 8 88 97 100 99 100 100 90 83 92 76 61 45 39 41 46 47 45 38 31 22 19 19 21
25 22 17 13 9 5 4 4 4 15 26 45 36 61 10 9 2 4 4 5 14 86 100 98 98 99 100 99 90 75 77 54 46 40 45 54 54 49 42 38 30 24 23 23
24 18 10 7 6 5 9 23 42 39 56 52 44 100 35 23 4 2 4 6 19 51 100 98 96 82 82 89 91 92 91 70 53 54 53 51 47 45 43 40 34 28 29 23
20 15 7 6 4 7 44 52 51 49 37 59 65 91 42 13 5 4 7 21 27 25 72 97 86 98 96 97 90 80 75 60 55 54 49 47 41 41 38 38 37 32 26 23
17 13 7 5 15 11 33 49 89 97 69 76 62 69 44 16 13 18 16 51 75 65 74 57 59 71 69 86 100 80 67 60 56 51 48 45 45 43 42 37 33 34 29 23
11 10 5 5 17 44 33 67 100 99 66 78 85 45 29 42 45 89 75 76 59 80 83 74 78 79 74 67 81 82 72 64 57 54 58 52 52 46 61 44 30 31 30 27
4 9 4 8 33 47 46 56 76 96 100 95 92 60 100 67 48 79 63 69 91 100 96 72 95 98 96 81 68 63 60 73 54 51 50 48 47 62 74 47 32 30 32 31
3 3 3 12 36 39 68 90 98 86 98 100 61 67 99 96 84 54 43 33 67 97 100 99 98 96 94 99 97 88 76 69 51 45 44 45 43 42 45 36 33 33 29 32
3 3 3 13 35 40 68 54 68 81 62 64 97 88 96 100 99 66 69 27 49 99 93 90 97 98 95 95 96 96 72 51 42 43 43 42 43 41 34 45 34 23 23 38
3 3 3 21 40 34 47 50 62 95 100 93 99 64 100 100 99 73 91 86 69 93 100 94 97 94 88 90 69 76 85 65 54 38 32 32 32 35 34 47 39 41 40 37
3 5 5 28 33 19 30 29 94 99 100 99 80 64 98 100 100 98 99 98 100 100 99 98 99 98 100 88 41 42 42 34 33 31 29 30 30 30 32 32 31 43 37 32
3 6 11 46 36 24 34 80 89 100 100 100 70 71 100 100 97 100 99 97 98 98 99 99 99 99 97 95 60 46 40 29 28 28 29 29 28 28 27 47 50 41 27 34
5 6 16 68 48 49 60 100 99 100 100 94 65 77 84 100 100 99 100 100 97 99 99 84 98 99 98 98 80 33 22 25 24 23 23 22 23 24 28 28 28 24 26 24
7 7 11 65 48 48 98 97 91 97 100 95 65 60 78 100 100 98 100 100 99 100 100 100 100 100 100 85 40 30 23 19 17 17 16 16 16 17 18 26 33 37 35 20
36 44 16 36 38 54 94 97 78 97 100 100 92 66 39 57 74 95 100 100 100 100 100 100 100 100 99 85 37 19 15 14 15 14 14 14 14 13 13 14 14 18 27 49
57 98 59 87 52 63 98 100 85 96 100 87 90 100 45 54 77 87 94 94 95 100 99 100 100 100 100 86 69 54 31 23 16 14 14 13 13 12 11 11 11 12 19 32
66 76 93 100 60 72 99 100 98 89 100 100 79 96 96 80 100 95 78 79 98 98 99 98 96 97 97 99 98 87 59 31 21 16 15 14 13 12 10 10 13 17 22 32
55 70 73 92 56 74 98 93 99 94 93 100 92 95 100 96 96 96 83 67 72 98 94 88 81 52 83 78 80 70 51 38 27 20 16 14 12 12 12 10 12 16 28 34
42 72 83 86 48 53 83 87 87 99 94 100 98 100 98 95 100 100 85 70 57 92 97 70 51 55 42 58 48 42 39 33 27 24 24 22 18 13 11 13 10 13 22 56
46 68 79 85 65 37 48 76 87 89 86 99 100 99 100 100 99 98 86 76 99 98 98 95 80 60 58 73 68 49 42 35 26 22 21 19 18 16 16 23 15 10 10 16
46 53 79 79 78 72 69 62 90 69 22 89 98 100 100 100 100 97 85 88 99 100 100 84 92 74 69 64 58 66 74 48 40 33 24 20 18 19 20 19 22 21 23 14
64 51 67 81 68 69 71 67 70 73 40 31 74 81 99 100 100 100 100 84 98 98 88 76 74 81 87 80 70 65 85 80 72 72 64 56 53 41 34 31 31 25 22 23
40 76 75 96 83 72 62 59 52 51 52 20 28 51 34 100 100 98 96 98 95 94 89 80 78 78 76 64 59 65 86 78 70 67 67 64 58 52 48 47 49 53 38 34

GFSCGP_500_rhum_129.txt.gz
RH
29 27 24 24 24 22 18 13 10 8 10 9 9 7 6 7 8 10 12 11 7 4 8 12 49 100 98 99 98 85 75 65 63 56 50 54 51 46 41 34 31 31 27 21
32 27 26 26 24 22 20 16 16 12 13 9 7 6 5 4 4 5 5 7 8 5 5 8 11 36 100 97 98 99 77 73 63 53 54 59 60 52 42 36 33 32 33 28
29 28 31 29 24 20 19 19 15 9 6 4 3 2 3 3 10 3 2 4 7 8 4 5 7 17 64 98 98 100 95 71 68 61 62 67 67 64 54 43 36 41 39 34
28 31 31 28 24 19 17 12 8 5 3 3 8 16 12 28 41 25 23 3 3 8 6 5 6 14 69 95 100 99 99 90 86 75 57 64 74 74 70 58 46 46 42 35
33 33 30 26 22 17 12 8 5 3 4 25 18 45 30 74 73 50 36 23 2 4 8 6 7 34 92 100 98 96 96 96 96 90 73 73 77 71 58 54 49 50 44 36
35 31 26 22 18 12 9 6 3 4 20 26 22 38 82 68 64 46 26 16 3 4 8 6 8 50 99 75 78 75 86 99 98 97 96 85 90 67 62 57 54 52 50 43
36 31 26 18 14 10 5 5 12 16 22 17 51 55 79 83 84 88 28 9 4 5 6 6 19 55 94 78 99 100 97 97 98 97 97 97 75 66 70 64 57 63 54 47
33 28 22 13 12 10 5 8 32 65 42 31 40 60 82 100 89 82 56 57 10 6 5 5 33 59 98 98 97 100 81 100 100 98 98 90 80 79 92 65 55 56 49 49
30 24 18 9 7 6 4 15 44 72 55 64 50 46 64 99 100 100 56 20 5 6 6 17 38 64 100 98 100 95 93 97 98 97 98 97 98 96 96 87 56 54 55 54
28 20 14 8 6 4 12 26 38 64 59 52 46 53 77 71 95 77 46 45 19 30 32 42 39 64 83 94 96 98 98 91 91 98 97 97 97 96 95 88 60 59 57 50
25 18 10 5 4 4 23 41 66 33 74 68 59 43 82 98 87 97 70 56 65 65 88 100 100 89 73 73 92 99 100 99 96 93 96 96 90 95 96 90 91 82 76 65
21 14 9 4 3 5 39 33 50 99 77 87 96 44 61 98 100 100 80 99 54 88 95 97 99 99 99 100 98 100 97 92 96 97 99 97 95 94 96 95 96 93 95 64
15 9 7 3 5 22 42 69 56 97 100 100 96 38 50 75 100 100 97 100 92 96 100 98 97 99 98 98 98 98 98 98 99 86 83 86 70 62 52 59 60 81 71 51
8 4 3 3 6 32 50 32 44 55 100 94 100 58 53 91 100 99 98 98 100 99 95 98 91 90 95 99 95 99 95 97 97 99 79 92 87 61 48 56 58 69 70 72
4 3 3 4 15 37 34 30 38 91 100 96 78 90 83 100 100 100 98 98 98 100 92 96 85 95 99 96 99 97 100 98 96 93 73 58 47 41 37 35 40 47 42 56
4 4 3 7 29 35 41 51 86 82 100 100 100 73 81 94 82 90 100 100 97 99 98 99 99 98 97 94 94 97 94 93 69 57 55 47 43 39 32 30 31 39 52 43
4 3 4 12 28 46 50 66 100 83 91 90 99 80 62 70 100 100 99 93 100 100 100 100 100 98 98 100 99 96 96 88 47 31 26 28 28 27 28 28 28 41 49 61
4 4 6 22 43 51 62 60 86 65 96 98 100 100 98 99 76 75 78 78 91 99 98 100 100 100 100 100 100 100 98 90 62 25 21 20 21 21 21 21 23 30 32 62
5 6 12 39 48 50 70 97 86 82 77 93 97 100 100 100 100 100 100 98 97 97 100 99 100 99 100 100 100 92 38 23 17 16 16 15 15 15 14 14 14 14 15 50
8 9 23 41 65 65 78 100 81 56 67 93 82 98 100 98 82 79 93 67 74 89 97 99 99 96 95 89 93 81 59 34 39 32 22 14 13 14 14 14 13 11 11 12
10 12 20 50 63 52 72 97 83 72 72 89 91 96 98 100 100 82 94 98 50 65 87 94 86 71 53 56 79 94 94 83 62 46 37 28 21 14 12 12 12 12 11 10
18 26 31 42 58 50 69 65 88 80 88 89 99 94 80 76 94 77 81 82 66 62 84 86 80 64 52 48 53 59 58 64 55 45 38 33 28 25 22 17 14 11 10 10
19 29 35 39 61 78 61 50 58 86 90 83 95 95 96 85 89 99 89 100 99 81 80 88 88 81 74 57 45 51 49 41 36 33 31 25 22 21 19 18 16 15 13 10
25 32 39 38 37 59 71 62 43 53 89 73 84 100 98 97 94 92 97 100 98 100 100 98 85 83 82 66 46 39 50 50 43 36 30 24 20 16 16 15 14 14 13 11
39 47 52 47 50 48 66 67 64 54 81 73 58 94 97 92 96 94 89 92 100 100 100 100 96 86 72 73 73 64 48 48 55 57 52 36 27 22 19 20 18 14 13 12
44 30 20 26 53 58 88 76 61 55 64 79 58 41 60 78 71 100 98 86 78 96 100 100 99 86 83 72 74 64 61 63 63 51 58 56 45 40 37 36 37 37 35 37

GFSCGP_500_rhum_132.txt.gz
RH
84 48 39 33 29 26 23 19 14 13 10 8 7 4 3 3 4 5 5 5 5 6 7 11 11 8 13 75 99 98 96 86 87 80 83 60 63 48 41 40 38 36 36 34
54 46 41 36 30 25 22 18 14 10 11 9 8 4 5 5 4 4 4 4 4 3 3 6 11 10 11 15 67 100 95 100 98 75 87 77 75 69 43 42 43 40 38 36
55 47 40 34 28 24 26 20 17 12 8 10 8 5 4 4 4 9 19 20 21 7 3 3 5 11 9 11 17 58 100 98 98 83 91 91 79 83 70 54 49 46 42 39
51 44 36 32 31 29 23 16 13 13 12 9 6 4 3 6 13 17 20 17 14 14 10 4 3 6 11 9 9 16 76 98 89 77 95 87 77 78 76 83 65 51 52 41
47 40 38 36 33 26 19 15 13 11 9 7 4 6 6 20 30 24 63 100 89 21 21 12 4 4 10 10 8 8 12 87 100 79 81 82 79 84 93 90 78 67 68 59
47 44 42 36 29 24 17 13 12 10 7 5 4 18 18 56 80 34 88 97 85 63 24 20 14 3 10 8 7 7 11 20 77 79 73 64 96 95 98 96 88 86 85 76
52 47 40 33 28 22 18 14 10 7 6 4 8 20 34 72 67 58 75 98 96 84 60 23 15 3 10 7 5 6 7 19 27 59 66 77 97 92 100 96 96 91 82 74
54 52 42 33 26 20 17 11 8 6 4 3 10 23 34 70 68 54 87 100 100 100 83 48 17 4 9 7 6 6 8 64 50 51 75 86 92 97 96 94 95 95 85 59
55 48 39 31 24 19 12 9 8 5 5 17 17 23 83 60 76 96 94 100 99 99 94 29 15 7 8 7 6 22 69 80 99 79 89 90 95 97 95 96 99 100 75 63
50 40 36 27 20 14 10 8 5 4 14 28 21 33 68 69 90 94 73 100 96 71 38 31 14 9 6 6 14 41 75 98 83 82 80 95 98 89 90 96 99 98 86 66
46 42 28 24 16 12 8 6 4 4 28 44 33 29 78 66 74 85 100 100 100 46 38 19 21 11 23 25 55 63 84 100 98 96 98 98 100 94 98 97 98 97 90 80
47 37 23 15 14 10 5 3 3 9 26 42 69 32 96 83 53 96 100 100 99 86 60 68 95 98 97 94 88 89 93 98 81 88 99 97 97 92 96 98 97 97 98 93
43 28 19 14 10 6 3 3 11 32 31 41 75 52 87 96 62 98 100 100 98 100 96 99 99 95 89 77 83 88 96 96 99 100 98 97 98 97 97 96 95 96 97 91
37 20 18 10 6 6 2 5 30 40 40 27 74 69 83 89 84 100 100 100 100 97 100 99 100 97 90 95 96 85 99 98 98 98 98 96 96 96 96 96 96 97 98 96
31 16 10 4 4 4 2 5 41 31 58 50 66 84 94 93 95 99 99 100 100 100 99 100 98 98 99 98 98 99 98 100 100 97 95 95 93 93 94 95 93 96 88 82
21 12 6 4 4 3 3 7 37 34 53 74 88 90 97 100 100 100 98 98 100 100 99 100 100 98 98 98 97 97 96 99 93 88 94 93 97 94 85 88 95 72 63 50
14 5 4 4 3 3 5 18 42 50 79 78 95 78 85 94 99 85 81 81 98 100 98 100 100 100 100 99 90 99 97 96 96 94 93 90 93 86 73 63 62 56 50 44
6 5 4 4 4 6 10 27 66 60 82 77 90 91 66 87 94 100 83 56 71 100 100 100 100 100 99 100 97 93 97 89 91 91 82 60 44 41 47 44 44 44 41 34
6 5 4 4 5 11 24 41 64 85 85 82 87 100 86 78 89 100 83 75 56 59 90 99 100 100 100 99 100 100 100 100 100 99 95 48 28 37 41 45 39 28 25 26
6 6 6 5 6 13 27 55 72 77 79 73 80 85 88 73 92 85 92 64 35 51 50 79 94 79 87 97 96 99 100 100 77 70 90 74 42 22 18 19 19 18 17 17
7 6 7 7 9 14 33 45 54 81 87 71 76 94 100 79 85 82 75 67 46 51 49 49 49 67 65 59 64 85 96 94 53 42 31 27 17 15 14 14 14 14 14 13
8 7 8 9 12 17 24 32 57 67 75 91 84 99 100 100 96 88 78 65 66 68 76 92 73 56 53 52 57 59 98 100 88 77 66 46 39 34 28 21 15 12 12 12
10 11 12 14 19 23 29 26 39 55 60 70 93 95 83 100 100 92 83 84 91 88 73 82 100 84 56 56 48 50 52 56 66 71 59 47 41 36 32 30 27 24 22 19
12 15 17 20 26 34 39 39 34 40 58 55 56 97 86 100 100 98 89 89 100 100 100 100 100 100 92 82 61 48 42 46 44 40 36 32 30 27 24 22 20 19 18 17
13 15 16 18 34 41 46 44 46 36 48 63 51 80 75 100 100 95 88 94 99 100 99 100 100 100 100 91 72 60 46 35 39 42 38 34 31 28 25 22 17 15 13 13
14 15 19 27 24 16 18 33 46 56 64 60 56 66 71 90 83 69 78 78 79 82 97 100 100 100 100 93 75 76 82 59 49 54 51 41 35 32 26 23 21 18 16 14

GFSCGP_500_rhum_135.txt.gz
RH
96 91 91 89 78 58 44 37 31 25 22 17 16 12 8 6 5 3 3 3 2 2 2 2 2 3 3 7 8 61 61 70 100 93 91 76 68 80 74 56 32 32 33 35
92 85 78 69 59 51 42 35 29 25 22 18 13 9 6 5 4 3 2 2 2 2 2 2 2 2 3 4 8 8 42 68 74 100 98 98 88 85 93 74 51 38 37 36
92 92 83 74 61 49 41 34 28 25 18 14 9 6 4 4 3 2 2 2 3 8 19 34 38 41 19 4 5 10 9 44 58 93 100 88 99 90 91 76 63 49 42 40
94 86 77 69 58 51 45 37 28 23 17 11 8 5 3 3 2 2 3 5 11 11 32 30 43 61 27 8 5 12 10 12 60 100 96 98 98 83 75 74 88 65 52 46
86 87 78 71 67 61 43 33 27 19 14 10 8 5 3 3 3 5 10 11 14 34 50 66 80 81 12 11 6 10 12 8 25 79 100 89 85 72 98 94 90 92 86 64
96 93 64 71 65 51 41 29 22 18 13 8 5 4 3 6 14 14 11 19 37 85 94 99 92 44 43 13 7 8 12 8 10 24 50 96 69 88 90 92 94 77 94 89
98 97 96 78 63 52 35 26 21 15 10 6 5 4 4 22 33 34 19 23 55 100 97 100 91 42 56 18 8 8 13 9 8 19 29 44 67 90 87 98 99 90 84 91
97 94 94 78 63 45 31 24 18 12 9 6 5 3 7 26 46 71 63 94 98 98 82 97 99 84 60 15 8 9 13 10 8 9 10 35 44 100 92 98 91 83 85 99
97 96 91 74 53 40 30 22 16 10 7 6 4 3 10 25 42 68 72 100 70 100 66 64 100 78 52 16 8 11 12 11 9 8 8 11 16 28 61 100 77 95 84 90
97 96 90 62 48 39 26 19 11 8 7 5 3 4 17 18 28 61 71 92 100 100 72 55 100 67 41 14 9 12 11 10 8 5 5 5 10 22 31 100 87 94 92 77
100 92 70 57 44 34 22 14 10 9 5 5 3 6 28 24 41 44 63 96 100 91 88 93 99 63 14 8 9 9 7 9 16 15 10 6 18 23 28 56 76 92 84 92
100 87 93 65 42 24 17 10 11 7 5 4 8 13 38 48 54 38 64 98 100 100 98 100 100 66 30 8 8 7 7 8 33 19 24 60 76 96 70 73 81 98 98 80
100 94 90 57 32 20 11 10 7 4 3 5 9 17 50 82 87 88 48 84 100 100 100 100 100 100 44 40 27 8 8 14 35 49 59 70 66 85 93 93 94 82 92 93
100 98 96 46 24 17 8 5 4 3 3 6 17 15 49 92 100 100 49 76 100 100 99 100 100 99 99 94 92 92 78 92 84 70 54 81 95 97 99 96 98 97 93 96
100 97 75 30 21 11 7 4 3 4 4 9 16 16 25 61 97 100 46 78 100 100 100 99 99 100 100 99 99 100 99 99 100 83 98 97 98 98 97 98 98 97 97 98
98 89 50 22 15 9 6 4 4 5 7 24 24 31 26 51 82 88 64 64 97 100 100 100 99 99 100 100 100 100 97 98 98 98 99 98 96 97 98 96 98 98 98 97
98 72 33 16 11 6 6 6 4 3 6 28 46 49 67 70 68 92 73 54 74 100 100 100 100 100 100 100 99 100 100 99 98 97 98 94 90 93 87 87 86 92 92 95
89 55 21 11 7 7 7 4 4 4 8 33 48 56 68 66 54 87 98 56 51 83 83 99 100 100 100 100 100 99 99 98 89 87 82 77 70 72 88 79 74 71 70 69
75 33 15 10 6 6 5 5 4 4 16 38 55 61 59 67 67 56 91 65 51 48 46 66 87 99 98 100 100 100 96 92 84 84 81 80 80 64 49 48 69 76 66 69
45 19 11 7 7 6 6 6 6 6 27 42 74 67 64 50 65 65 66 84 64 38 31 43 45 49 72 73 87 100 100 100 100 97 95 98 92 70 43 37 44 45 43 36
22 12 9 8 7 6 7 7 8 10 12 23 52 83 78 61 62 75 68 49 50 29 33 42 37 47 52 64 66 82 100 100 100 94 76 70 89 84 68 52 22 18 19 22
18 14 10 9 8 9 9 8 9 13 13 18 43 63 88 74 89 91 86 64 57 47 53 50 50 60 60 48 55 58 81 100 100 83 47 40 42 33 23 18 16 15 15 15
18 16 12 10 10 8 9 13 14 22 26 22 25 57 62 91 79 98 100 87 78 77 70 62 82 88 96 59 51 48 67 91 100 96 80 73 74 40 34 30 26 23 20 17
15 14 12 11 11 10 11 13 20 27 33 34 29 31 51 61 88 89 100 100 94 88 94 97 75 91 100 94 71 60 54 54 56 58 65 71 65 51 41 35 31 28 27 25
16 13 11 10 10 10 18 26 31 32 34 33 38 31 54 47 76 94 100 100 100 100 100 100 100 100 100 100 97 85 68 52 46 51 46 43 39 35 33 31 27 23 21 20
14 12 9 8 10 17 20 16 12 11 13 24 44 49 54 61 63 90 99 78 99 100 100 100 100 100 98 100 100 99 90 74 61 49 46 48 44 39 34 29 28 25 24 23